Wind_Speed
3 3 3 3 3 4 4 5 5 5 5 5 5 5 5 5 5 6 7 6 6 6 7 7 8 8 8 8 8 8 8 8 8 8 8 8 8 8 8 8 8 8 8 8 8 7 7 7 7
2 2 2 3 3 4 4 4 4 4 5 5 6 5 6 6 6 6 7 7 7 7 7 7 8 8 8 8 8 8 8 8 8 8 8 8 9 9 9 9 9 8 8 9 8 8 7 8 8
2 2 2 3 3 4 4 5 5 5 5 6 6 5 6 6 6 7 8 8 8 8 8 8 8 8 9 9 9 9 8 8 8 8 8 8 9 9 9 9 9 9 9 9 9 9 8 8 8
2 2 2 3 3 4 4 5 5 5 6 6 6 6 6 7 7 8 8 8 8 8 9 9 8 8 9 9 9 9 9 9 9 9 9 8 9 9 9 10 10 9 8 9 9 9 8 8 8
2 2 2 3 4 5 5 5 5 6 6 6 6 6 7 8 8 9 9 9 9 9 9 9 9 9 9 9 9 8 8 8 9 9 9 9 9 9 10 10 9 9 8 8 9 9 9 9 9
3 3 3 4 5 6 5 5 5 6 6 6 7 7 7 8 9 9 9 9 9 9 9 9 10 10 10 9 9 9 8 8 9 9 10 10 9 9 9 9 9 9 9 9 9 9 9 9 9
4 4 4 4 5 6 5 5 6 6 7 7 7 7 8 8 9 9 9 9 9 9 9 10 10 10 10 9 9 9 9 9 9 10 10 10 9 9 9 9 9 9 9 9 9 10 10 9 9
4 4 4 4 5 5 5 5 6 6 6 6 7 8 8 8 9 9 10 10 10 10 10 10 10 10 9 9 10 9 10 10 10 11 10 10 9 9 9 9 9 9 9 9 9 10 10 10 10
5 5 5 5 6 6 6 6 6 6 7 7 8 9 9 9 10 10 10 10 10 10 10 11 10 10 9 9 9 10 10 10 10 11 10 10 9 9 9 9 9 9 9 9 9 9 9 10 10
5 5 5 6 7 7 7 7 7 7 8 8 9 10 10 10 10 10 10 10 10 10 11 11 10 10 10 10 10 10 10 10 10 10 10 9 9 9 9 8 8 8 9 8 9 8 9 10 10
6 6 6 7 8 8 8 8 8 9 9 10 10 11 11 11 11 11 11 11 11 11 11 11 11 11 11 11 11 10 10 10 10 9 9 9 9 9 9 9 9 8 8 9 9 9 9 10 10
7 7 8 8 9 9 10 10 10 10 10 11 11 12 12 12 12 12 12 11 12 12 12 12 12 12 11 11 11 11 11 10 10 9 8 8 8 8 9 8 8 8 8 8 8 9 9 10 10
8 8 8 9 10 10 10 11 11 11 11 11 12 12 13 13 12 12 12 12 12 12 12 12 12 12 12 12 11 11 11 10 10 9 8 8 8 8 9 8 8 8 8 8 8 8 8 9 9
9 9 9 10 10 11 11 11 12 12 12 12 13 13 13 13 12 12 12 12 12 13 13 12 12 12 12 12 12 11 11 11 10 10 9 9 8 8 8 8 8 8 8 8 8 8 8 8 8
10 10 10 11 11 12 12 13 13 13 13 13 13 13 13 13 13 13 13 13 13 13 13 13 13 13 12 12 11 11 11 10 10 9 9 9 8 9 9 8 9 8 8 8 8 8 8 8 8
11 11 11 12 12 13 14 14 14 14 14 14 13 13 13 13 14 14 14 14 14 14 14 13 13 13 12 12 11 11 11 10 10 10 9 9 8 9 8 8 8 8 8 9 8 8 8 8 8
11 12 12 13 13 15 16 15 15 15 15 15 15 14 15 14 14 14 14 14 14 14 14 14 13 13 13 12 11 11 11 10 9 10 10 10 9 9 8 8 7 7 8 9 9 8 8 8 8
11 12 13 14 15 15 17 16 16 15 16 16 16 16 16 15 15 15 15 15 15 15 15 15 14 14 13 12 11 11 11 11 11 11 10 10 10 9 9 9 8 8 9 9 8 8 8 8 8
13 14 14 15 15 16 17 16 16 16 16 17 17 17 17 16 16 15 15 15 16 16 15 15 15 14 13 12 11 11 11 11 11 11 11 10 10 10 10 10 10 10 9 9 9 8 8 8 8
14 15 15 16 16 16 17 17 16 16 16 17 17 16 17 17 17 17 16 16 16 16 15 15 15 15 13 12 11 11 11 11 11 11 11 11 10 10 10 11 11 10 10 9 9 9 8 8 8
15 16 16 17 17 16 17 17 15 15 15 16 17 16 16 17 17 17 17 17 16 16 16 15 15 14 14 13 12 12 12 11 12 12 11 11 12 12 11 11 11 11 10 10 10 9 9 9 9
16 16 17 17 17 16 16 17 16 17 15 15 16 16 16 16 17 18 18 18 17 17 16 16 15 15 14 13 13 13 13 13 13 13 13 13 13 13 13 12 11 10 10 10 10 10 10 9 10
15 15 16 17 17 16 16 17 18 17 16 16 16 17 16 17 18 19 19 19 19 18 18 17 16 15 15 15 15 14 14 14 14 14 14 14 13 14 13 13 12 12 12 12 12 11 11 11 11
15 16 16 16 16 16 15 17 19 19 18 18 17 17 18 19 19 20 19 19 19 19 18 17 16 16 16 16 16 15 15 15 14 14 14 14 14 14 14 13 13 12 12 13 12 12 13 12 12
16 16 15 15 15 15 16 19 20 19 20 20 19 19 19 20 20 20 19 19 18 18 18 18 17 17 17 16 15 15 15 15 15 15 15 15 14 14 13 14 14 13 13 13 13 12 13 12 12
16 16 16 16 14 15 17 20 19 19 20 20 19 19 20 20 20 19 20 19 19 18 19 19 19 18 18 17 16 16 16 16 16 16 16 15 15 15 14 15 15 14 14 14 13 13 13 13 13
17 16 17 17 17 17 17 19 19 19 21 21 20 20 19 19 19 20 20 19 19 19 19 20 20 19 18 18 18 18 18 17 17 17 17 16 16 15 15 15 15 15 14 14 14 14 14 13 13
17 17 17 18 18 18 18 20 21 20 21 21 21 21 20 19 19 20 20 20 20 20 20 20 20 19 19 19 18 18 18 17 17 17 17 17 17 16 16 16 16 16 16 15 15 15 15 15 14
17 17 18 19 19 19 19 20 20 21 21 22 21 21 21 20 19 20 20 20 20 21 20 20 20 20 20 20 19 19 18 18 18 18 18 17 17 17 17 17 17 17 17 17 17 16 16 16 15
18 18 18 19 19 19 21 22 21 23 23 22 22 21 21 21 20 20 21 21 21 21 21 21 20 20 21 21 20 19 19 19 19 19 19 18 18 18 18 18 18 18 18 17 17 17 17 16 16
Wind_Direction
37 31 28 25 27 9 3 6 354 352 347 343 337 333 331 326 322 320 315 314 309 304 300 298 292 292 290 288 287 286 282 281 280 277 282 280 273 272 271 268 268 269 269 267 270 275 271 269 270
29 13 10 9 19 2 352 355 354 347 339 337 333 329 328 324 321 318 314 313 312 310 305 299 297 294 292 291 290 290 288 283 283 280 277 278 276 274 273 273 272 273 271 267 269 272 274 271 266
1 352 357 5 2 355 343 347 343 339 334 333 331 328 327 323 320 315 311 309 310 310 308 305 300 297 291 290 290 289 288 285 284 281 278 276 275 274 273 275 274 275 272 269 268 271 273 274 267
333 322 338 356 354 344 330 329 334 334 331 329 327 325 323 322 319 316 311 310 311 310 308 308 306 300 294 292 289 286 286 285 284 281 279 278 275 273 274 276 275 275 274 276 272 269 273 275 271
327 318 336 350 338 327 322 324 327 326 327 327 327 326 324 319 317 316 313 312 312 311 311 310 309 305 300 297 293 289 290 287 283 282 282 280 281 279 275 275 276 276 276 278 274 270 273 273 271
320 326 328 335 324 315 315 319 322 321 322 325 326 325 324 320 321 319 318 317 315 313 313 313 310 306 302 301 298 296 295 291 288 287 286 284 280 277 274 272 273 276 276 275 273 269 269 270 268
312 314 314 321 312 310 312 316 318 319 323 324 324 324 324 324 323 322 322 320 318 316 316 314 314 308 302 299 298 298 296 295 291 289 289 284 278 274 273 272 271 275 278 277 276 273 271 267 267
303 300 306 311 310 311 311 311 314 317 319 320 318 321 322 323 322 322 324 324 322 321 320 319 316 314 306 299 297 298 297 296 295 292 292 285 281 276 273 274 274 273 275 275 277 274 271 268 267
301 297 295 300 301 305 307 305 308 311 312 314 315 318 319 321 321 321 323 323 322 322 321 321 319 317 313 306 302 298 298 296 296 294 292 287 281 277 277 274 272 272 273 274 277 276 273 271 271
294 290 290 297 297 298 300 303 306 307 309 311 312 314 315 317 318 319 320 322 321 322 321 320 319 316 314 310 305 302 300 297 297 295 292 287 282 279 276 275 274 273 274 276 276 275 274 273 272
286 282 287 294 294 295 297 299 301 304 307 310 311 313 312 314 316 317 318 321 322 322 322 320 319 315 311 308 306 304 303 299 295 295 294 286 282 281 278 277 279 281 280 279 277 276 275 274 272
283 284 285 287 289 291 292 295 297 299 303 308 311 312 310 313 315 316 317 318 320 320 321 320 318 315 310 306 306 302 300 301 296 294 294 290 284 280 279 278 276 277 280 280 279 274 273 272 272
280 281 280 281 285 289 291 293 294 296 299 305 308 308 308 311 314 315 315 315 317 318 318 319 314 311 308 305 304 301 300 298 297 293 290 291 285 282 280 279 274 275 277 281 281 276 279 275 272
285 286 286 285 287 288 291 293 294 295 295 297 302 304 308 310 312 313 314 313 314 315 316 317 315 310 308 306 306 302 299 298 295 294 291 290 286 286 282 278 276 277 278 278 282 281 281 282 276
285 287 287 288 290 291 291 292 294 296 295 295 299 301 303 305 309 311 311 311 311 313 314 316 316 314 310 307 306 304 303 297 292 291 294 290 285 286 284 281 279 277 277 281 283 283 283 283 279
284 284 286 291 292 291 289 290 292 293 293 293 294 296 298 301 304 306 307 308 308 310 312 313 315 315 312 308 306 304 303 299 293 289 291 292 287 286 287 282 283 280 280 283 285 286 287 285 281
282 286 290 291 292 292 291 291 292 292 291 290 292 294 296 298 300 302 303 305 306 307 310 310 312 313 311 305 302 303 301 299 296 292 288 288 286 285 284 287 285 283 285 284 282 281 289 289 284
280 281 282 285 289 291 291 291 292 292 291 289 291 294 294 296 297 298 300 301 303 305 306 307 308 311 310 305 302 303 301 298 298 296 292 288 285 284 284 285 285 283 283 283 285 283 286 288 288
275 273 275 281 285 289 291 291 294 294 291 289 290 290 291 293 293 296 297 298 299 301 303 304 305 308 306 304 301 299 300 299 298 296 293 291 285 282 282 283 282 282 279 278 280 282 284 285 285
275 276 276 280 284 287 289 292 294 294 292 291 291 290 291 292 291 293 294 295 297 298 300 301 302 303 304 302 300 298 297 298 299 297 291 291 288 283 283 277 279 281 280 277 274 278 284 284 284
276 278 280 281 282 284 288 290 291 290 290 289 289 291 290 289 290 290 291 293 295 295 297 299 299 301 300 300 297 296 295 295 295 294 293 291 290 285 282 282 280 279 278 275 271 273 275 278 282
275 277 279 282 283 285 289 289 291 291 292 290 290 290 289 288 289 290 291 290 290 291 294 295 297 298 297 296 295 294 295 295 294 292 290 288 287 287 285 285 282 283 280 275 272 270 271 273 275
278 280 280 282 285 286 288 288 289 293 293 290 288 287 289 289 289 290 290 289 289 289 290 291 292 293 291 292 293 294 294 294 293 292 289 285 283 283 281 281 280 280 278 275 270 270 273 274 274
277 278 279 283 287 288 291 288 286 290 294 292 290 288 288 288 289 290 289 288 288 288 287 288 289 290 289 287 291 293 293 293 292 292 290 287 284 281 277 276 276 275 275 277 273 268 272 275 277
277 280 281 282 288 293 292 286 286 292 292 292 292 291 289 288 288 289 289 289 289 287 285 286 287 288 289 288 289 289 292 293 292 291 290 287 284 281 277 273 272 273 274 275 274 271 272 274 279
274 275 278 279 278 281 283 282 286 288 287 291 292 291 289 287 287 287 288 288 288 288 285 286 286 285 285 286 287 287 288 290 291 291 289 287 285 281 279 274 271 272 271 272 273 274 273 272 273
273 272 274 274 277 275 279 280 283 286 286 289 291 290 288 286 283 283 285 285 286 287 286 285 285 283 282 283 285 285 285 287 288 287 286 286 284 282 278 274 273 272 272 272 271 273 273 271 268
274 273 272 273 276 277 277 278 282 285 283 286 288 288 287 286 286 284 283 283 284 286 285 284 284 282 281 282 283 283 282 283 286 286 284 284 281 279 278 274 273 272 270 270 271 270 269 269 268
277 275 273 272 273 275 275 276 280 283 283 286 287 286 284 283 284 284 282 281 283 285 283 283 283 281 280 281 282 282 282 283 283 283 281 281 280 277 276 274 273 272 268 266 268 268 268 270 269
276 276 276 274 273 273 272 273 280 283 282 281 282 283 282 281 284 283 283 281 282 283 282 281 280 280 280 279 279 279 279 281 283 281 279 279 280 277 275 272 272 270 268 266 265 266 267 268 269
Height
5882 5882 5882 5882 5882 5881 5880 5880 5879 5879 5879 5878 5877 5877 5877 5877 5877 5879 5875 5874 5874 5873 5873 5873 5872 5872 5871 5871 5870 5870 5870 5869 5869 5869 5868 5868 5868 5869 5869 5869 5869 5869 5869 5869 5870 5870 5870 5870 5870
5882 5882 5882 5882 5881 5880 5880 5879 5879 5879 5879 5878 5877 5877 5876 5876 5876 5875 5874 5873 5873 5872 5872 5871 5871 5870 5870 5870 5869 5869 5868 5868 5868 5868 5867 5867 5867 5867 5867 5867 5867 5868 5868 5868 5868 5868 5869 5869 5869
5882 5882 5883 5882 5881 5880 5880 5879 5879 5879 5878 5878 5877 5877 5877 5876 5875 5874 5873 5873 5872 5872 5871 5870 5870 5869 5869 5868 5868 5867 5867 5866 5866 5866 5866 5866 5866 5865 5866 5866 5866 5866 5866 5866 5867 5867 5867 5867 5867
5882 5883 5883 5882 5881 5880 5879 5879 5879 5878 5878 5877 5877 5877 5876 5875 5875 5874 5873 5872 5871 5871 5870 5869 5868 5868 5867 5867 5866 5866 5865 5865 5865 5865 5864 5864 5864 5864 5864 5864 5864 5864 5864 5865 5865 5865 5866 5866 5866
5882 5882 5882 5881 5880 5880 5879 5879 5878 5878 5877 5877 5877 5876 5875 5875 5874 5873 5872 5871 5870 5869 5869 5868 5867 5866 5866 5865 5865 5864 5864 5863 5863 5863 5863 5863 5862 5862 5862 5862 5862 5863 5863 5863 5863 5863 5864 5864 5864
5882 5882 5881 5880 5880 5879 5879 5878 5878 5878 5877 5877 5876 5875 5875 5874 5873 5872 5871 5870 5869 5868 5867 5866 5865 5865 5864 5864 5863 5863 5862 5862 5862 5861 5861 5861 5861 5860 5860 5860 5861 5861 5861 5861 5861 5862 5862 5862 5862
5882 5881 5880 5880 5879 5879 5879 5878 5878 5877 5877 5876 5876 5875 5874 5873 5872 5871 5870 5869 5868 5867 5866 5865 5864 5863 5863 5862 5861 5861 5861 5860 5860 5860 5859 5859 5859 5859 5859 5859 5859 5859 5859 5859 5859 5860 5860 5860 5861
5881 5881 5880 5879 5879 5879 5878 5877 5877 5877 5876 5876 5875 5874 5873 5873 5871 5870 5869 5868 5867 5866 5865 5864 5863 5862 5861 5860 5860 5859 5859 5859 5858 5858 5857 5857 5857 5857 5857 5857 5857 5857 5858 5858 5858 5858 5858 5858 5859
5880 5881 5879 5879 5878 5878 5878 5877 5877 5876 5876 5875 5874 5874 5873 5871 5870 5869 5868 5867 5866 5865 5864 5862 5861 5860 5860 5859 5858 5858 5857 5857 5856 5856 5855 5855 5855 5855 5855 5855 5855 5856 5856 5856 5856 5856 5856 5856 5857
5880 5880 5879 5878 5878 5877 5877 5876 5876 5876 5875 5874 5873 5872 5871 5870 5869 5868 5867 5866 5865 5864 5862 5861 5860 5859 5858 5857 5857 5856 5856 5855 5855 5854 5854 5853 5853 5853 5853 5853 5853 5854 5854 5854 5854 5854 5854 5854 5855
5879 5878 5878 5878 5877 5877 5876 5875 5875 5874 5874 5873 5872 5871 5870 5869 5868 5867 5866 5864 5863 5862 5861 5860 5859 5858 5857 5856 5855 5854 5854 5853 5853 5852 5852 5852 5851 5851 5851 5852 5852 5852 5852 5852 5852 5852 5852 5853 5853
5877 5877 5877 5877 5876 5876 5875 5874 5874 5873 5873 5872 5871 5870 5869 5868 5867 5866 5864 5863 5862 5861 5860 5858 5857 5856 5855 5854 5853 5853 5852 5852 5851 5850 5850 5850 5850 5850 5850 5850 5850 5851 5851 5851 5851 5851 5851 5851 5851
5876 5876 5876 5875 5875 5874 5874 5873 5873 5872 5871 5871 5870 5869 5867 5866 5865 5864 5863 5862 5861 5860 5858 5857 5856 5855 5853 5852 5852 5851 5850 5850 5849 5849 5848 5848 5848 5848 5848 5848 5849 5849 5849 5849 5849 5849 5849 5849 5849
5875 5874 5874 5874 5873 5873 5872 5872 5871 5870 5869 5869 5868 5867 5866 5865 5864 5862 5861 5860 5859 5858 5857 5856 5854 5853 5852 5851 5850 5849 5848 5848 5848 5847 5847 5847 5847 5847 5847 5847 5847 5847 5847 5847 5847 5847 5847 5847 5847
5872 5873 5872 5872 5871 5871 5870 5870 5869 5868 5867 5867 5866 5865 5864 5863 5862 5861 5860 5858 5857 5856 5855 5854 5852 5851 5850 5849 5848 5847 5847 5846 5846 5846 5845 5845 5845 5845 5845 5845 5845 5845 5845 5845 5846 5845 5846 5846 5845
5870 5870 5870 5870 5869 5868 5869 5868 5867 5866 5865 5864 5863 5863 5862 5861 5860 5859 5858 5857 5855 5854 5853 5852 5851 5849 5848 5847 5846 5846 5845 5844 5844 5844 5844 5844 5844 5844 5844 5844 5844 5844 5844 5844 5844 5844 5844 5844 5844
5868 5868 5867 5867 5867 5866 5865 5865 5864 5863 5862 5861 5860 5860 5859 5859 5858 5857 5856 5855 5853 5852 5851 5850 5849 5848 5846 5845 5845 5844 5843 5843 5843 5842 5842 5842 5842 5842 5842 5842 5842 5842 5842 5842 5842 5842 5842 5842 5842
5866 5865 5865 5865 5864 5863 5862 5862 5861 5860 5859 5858 5858 5857 5857 5856 5855 5854 5853 5852 5851 5850 5849 5848 5847 5846 5844 5843 5843 5842 5841 5841 5841 5841 5841 5840 5840 5840 5840 5841 5841 5841 5841 5841 5841 5841 5841 5841 5841
5862 5862 5862 5862 5861 5860 5859 5858 5858 5857 5857 5856 5855 5854 5854 5853 5852 5851 5851 5850 5849 5848 5847 5846 5844 5843 5842 5841 5841 5840 5839 5839 5839 5838 5838 5838 5838 5838 5839 5839 5839 5839 5839 5839 5839 5839 5839 5839 5839
5859 5859 5859 5859 5858 5857 5856 5855 5855 5854 5853 5852 5851 5851 5851 5850 5849 5848 5848 5847 5846 5845 5844 5843 5842 5841 5840 5839 5839 5838 5837 5837 5837 5836 5836 5836 5836 5836 5836 5836 5836 5837 5836 5836 5837 5837 5837 5837 5837
5856 5856 5855 5855 5855 5854 5853 5852 5852 5851 5850 5850 5849 5848 5848 5847 5846 5846 5845 5844 5843 5842 5841 5841 5840 5839 5838 5837 5836 5836 5835 5835 5835 5834 5834 5834 5834 5834 5833 5834 5834 5834 5834 5834 5835 5835 5836 5836 5836
5853 5853 5852 5851 5851 5850 5850 5849 5848 5847 5847 5847 5846 5845 5845 5844 5843 5842 5842 5841 5840 5839 5838 5838 5837 5836 5835 5835 5834 5833 5833 5832 5832 5831 5831 5831 5831 5831 5831 5831 5831 5832 5832 5832 5832 5833 5833 5834 5834
5849 5849 5848 5848 5847 5847 5847 5846 5845 5844 5844 5844 5843 5842 5842 5841 5840 5839 5838 5838 5837 5836 5835 5835 5834 5833 5832 5832 5831 5830 5830 5829 5829 5828 5828 5828 5828 5828 5828 5828 5829 5829 5829 5829 5830 5830 5831 5831 5831
5846 5846 5845 5844 5843 5844 5844 5843 5842 5840 5840 5840 5840 5839 5838 5838 5836 5835 5835 5834 5833 5832 5832 5831 5831 5830 5829 5828 5828 5827 5827 5826 5825 5825 5825 5825 5825 5825 5825 5825 5825 5826 5826 5826 5827 5827 5828 5828 5829
5842 5842 5842 5841 5840 5841 5841 5839 5839 5838 5837 5837 5836 5835 5834 5834 5832 5832 5831 5830 5829 5828 5828 5827 5827 5826 5825 5825 5824 5823 5823 5822 5822 5821 5821 5821 5821 5821 5821 5821 5822 5822 5823 5823 5824 5824 5825 5825 5826
5838 5839 5839 5839 5838 5838 5837 5835 5836 5835 5833 5833 5832 5831 5830 5829 5828 5827 5827 5826 5825 5824 5824 5823 5822 5822 5821 5821 5820 5820 5819 5818 5818 5817 5817 5816 5817 5817 5817 5817 5818 5818 5819 5820 5820 5821 5822 5822 5822
5834 5834 5834 5834 5833 5833 5833 5832 5831 5830 5829 5829 5828 5827 5826 5825 5824 5823 5822 5821 5821 5820 5819 5819 5818 5817 5817 5816 5816 5815 5815 5814 5814 5813 5813 5812 5812 5812 5812 5813 5813 5814 5815 5816 5816 5817 5818 5819 5819
5831 5830 5830 5829 5829 5829 5830 5828 5827 5826 5824 5824 5823 5822 5821 5820 5819 5818 5818 5817 5816 5815 5814 5814 5813 5813 5812 5812 5811 5811 5810 5810 5809 5809 5808 5808 5808 5808 5808 5808 5809 5810 5811 5812 5812 5813 5814 5815 5815
5826 5826 5825 5825 5824 5824 5824 5826 5822 5821 5820 5819 5818 5817 5816 5814 5814 5813 5813 5812 5811 5810 5810 5809 5808 5808 5807 5807 5806 5806 5805 5805 5805 5804 5804 5803 5803 5803 5803 5803 5804 5805 5806 5807 5808 5809 5809 5810 5811
5821 5821 5821 5820 5820 5819 5818 5821 5818 5816 5814 5814 5813 5812 5811 5809 5808 5808 5808 5807 5806 5805 5805 5804 5803 5803 5802 5801 5801 5801 5800 5800 5799 5799 5799 5798 5798 5798 5798 5798 5799 5800 5801 5802 5803 5804 5805 5806 5806